Location: *
(52.2090°N, 4.1550°W)
Time: 01:23:06
(UTC+00:00)

Nadezhda 4 Rocket - Pass Details

Date: 19 July 2019
Orbit: 949 x 993 km, 82.9° (Epoch: 24 August)

Event Time Altitude Azimuth Distance (km) Brightness Sun altitude
Rises 21:39:23 0° 348° (NNW) 3,716 8.4 -8.8°
Reaches altitude 10° 21:41:56 10° 345° (NNW) 2,759 7.6 -9.0°
Maximum altitude 21:48:11 65° 266° (W) 1,080 4.4 -9.6°
Drops below altitude 10° 21:54:19 10° 186° (S) 2,714 5.9 -10.2°
Enters shadow 21:55:42 - 184° (S) 3,229 6.3 -10.3°
